Location: ČR
(50.0000°N, 15.0000°E)
Time: 21:33:50
(UTC+00:00)

Vanguard 3 - Pass Details

Date: 22 October 2021
Orbit: 508 x 3260 km, 33.4° (Epoch: 04 December)

Event Time Altitude Azimuth Distance (km) Brightness Sun altitude
Rises 16:04:22 0° 212° (SSW) 3,459 11.2 -2.3°
Reaches altitude 10° 16:07:17 10° 194° (SSW) 2,850 10.4 -2.8°
Maximum altitude 16:12:06 19° 150° (SSE) 2,757 9.7 -3.5°
Drops below altitude 10° 16:18:49 10° 111° (ESE) 4,180 10.3 -4.6°
Enters shadow 16:23:11 - 99° (E) 5,404 10.7 -5.3°
Sets 16:24:27 0° 97° (E) 5,761 - -5.5°
